Regional Weather Roundup
Issued by NWS

Home | Current Version | Previous Version | Text Only | Print | Product List | Glossary Off
Versions: 1 2 3 4 5 6 7 8 9 10 11 12 13 14 15 16 17 18 19 20 21 22 23 24 25 26 27 28 29 30 31 32 33 34 35 36 37 38 39 40 41 42 43 44 45 46 47 48 49 50

000
ASUS44 KMEG 241710
RWRTN
TENNESSEE HOURLY STATE WEATHER ROUNDUP
NATIONAL WEATHER SERVICE MEMPHIS TN
1200 PM CDT FRI OCT 24 2014

TNZ002-004-019-021-049-052-054-088>092-241800-
WEST TENNESSEE

CITY           SKY/WX    TMP DP  RH WIND       PRES   REMARKS
MEMPHIS INTL   MOSUNNY   68  46  45 VRB5      30.15F
NWS MEMPHIS      N/A     67 N/A N/A MISG        N/A
JACKSON        SUNNY     65  46  50 NW6       30.14F
DYERSBURG      MOSUNNY   66  45  45 W6        30.16S
UNION CITY     SUNNY     63  48  59 W6        30.13S
PARIS          SUNNY     64  46  52 CALM      30.13F
HUNTINGDON     SUNNY     63  45  51 CALM      30.13F
LEXINGTON      SUNNY     64  45  48 CALM      30.13F
SAVANNAH       SUNNY     64  46  52 NE6       30.15R
$$

TNZ008-025-027-028-033-062-065-066-241800-
NORTH MIDDLE TENNESSEE

CITY           SKY/WX    TMP DP  RH WIND       PRES   REMARKS
NASHVILLE      MOSUNNY   65  43  44 N6        30.13F
CLARKSVILLE    CLOUDY    63  44  50 W5        30.13F
SMYRNA         SUNNY     65  46  50 N5        30.14F
COOKEVILLE     SUNNY     64  45  48 VRB3      30.11F
CROSSVILLE     SUNNY     64  38  38 VRB3      30.11F
$$

TNZ061-075-076-078-094-096-097-241800-
SOUTH MIDDLE TENNESSEE

CITY           SKY/WX    TMP DP  RH WIND       PRES   REMARKS
FAYETTEVILLE   SUNNY     61  45  55 NW6       30.11F
TULLAHOMA      SUNNY     63  43  48 N5        30.12F
WINCHESTER     SUNNY     63  45  51 NW5       30.11F
MCMINNVILLE    SUNNY     63  46  55 CALM      30.12S
COLUMBIA         N/A     64  46  52 NW3       30.11F
SHELBYVILLE    SUNNY     64  46  52 N7        30.13F
$$

TNZ017-018-042-046-047-241800-
NORTHEAST TENNESSEE

CITY           SKY/WX    TMP DP  RH WIND       PRES   REMARKS
TRI CITIES     PTSUNNY   57  44  62 CALM      30.10F
ELIZABETHTON   SUNNY     55  45  67 SW7       30.09F
$$

TNZ012-013-036-069-073-074-241800-
CENTRAL EAST TENNESSEE

CITY           SKY/WX    TMP DP  RH WIND       PRES   REMARKS
KNOXVILLE      MOSUNNY   61  44  53 E6        30.08
OAK RIDGE      SUNNY     62  45  53 CALM      30.11F
GATLINBURG     SUNNY     59  45  58 VRB3      30.09F
MORRISTOWN     SUNNY     57  45  62 NE6       30.11F
$$

TNZ083-085-099-241800-
SOUTHEAST TENNESSEE

CITY           SKY/WX    TMP DP  RH WIND       PRES   REMARKS
CHATTANOOGA    MOSUNNY   64  45  49 VRB6      30.10F
$$

SKY/WX REPORTED AS FAIR MEANS FEW OR NO CLOUDS BELOW
12 THOUSAND FEET.




USA.gov is the U.S. government's official web portal to all federal, state and local government web resources and services.